,,,PA_Meas_PMT16A,,PR_Meas_QMR101_102,,RH_Meas_QMH101,,SR_Meas_QMS101,,TA_Meas_QMH101,,GenWind,,GenWind,
date,time,status,PA,status,PR,status,RH,status,SR,status,TA,status,DirAvg,status,SpdAvg,
2009-06-12, 00:00:04,VALID,1004.64,VALID,0,VALID,87.1218,VALID,0,VALID,25.9408,VALID,160,VALID,0.359375,
2009-06-12, 00:01:04,VALID,1004.61,VALID,0,VALID,87.0303,VALID,0,VALID,25.9622,VALID,180,VALID,1.25391,
2009-06-12, 00:02:04,VALID,1004.59,VALID,0,VALID,87.1905,VALID,0,VALID,25.9622,VALID,191,VALID,1.04844,
2009-06-12, 00:03:04,VALID,1004.54,VALID,0,VALID,87.3125,VALID,0,VALID,25.9213,VALID,216,VALID,1.57305,
2009-06-12, 00:04:04,VALID,1004.51,VALID,0,VALID,87.4422,VALID,0,VALID,25.9232,VALID,183,VALID,1.29062,
2009-06-12, 00:05:04,VALID,1004.51,VALID,0,VALID,87.6558,VALID,0,VALID,25.8823,VALID,236,VALID,1.43789,
2009-06-12, 00:06:04,VALID,1004.45,VALID,0,VALID,87.0532,VALID,0,VALID,25.8434,VALID,238,VALID,1.55313,
2009-06-12, 00:07:04,VALID,1004.48,VALID,0,VALID,87.1447,VALID,0.100563,VALID,25.8239,VALID,207,VALID,1.21289,
2009-06-12, 00:08:04,VALID,1004.47,VALID,0,VALID,87.1981,VALID,0.100563,VALID,25.7655,VALID,189,VALID,1.4332,
2009-06-12, 00:09:04,VALID,1004.48,VALID,0,VALID,87.5719,VALID,0.100563,VALID,25.746,VALID,209,VALID,1.03516,
2009-06-12, 00:10:04,VALID,1004.43,VALID,0,VALID,88.1059,VALID,0.100563,VALID,25.709,VALID,164,VALID,1.2332,
2009-06-12, 00:11:04,VALID,1004.39,VALID,0,VALID,88.5103,VALID,0,VALID,25.709,VALID,164,VALID,0.929297,
2009-06-12, 00:12:04,VALID,1004.43,VALID,0,VALID,88.968,VALID,0.100563,VALID,25.6876,VALID,187,VALID,0.56875,
2009-06-12, 00:13:04,VALID,1004.45,VALID,0,VALID,89.296,VALID,0.100563,VALID,25.6681,VALID,165,VALID,0.46875,
2009-06-12, 00:14:04,VALID,1004.45,VALID,0,VALID,89.0443,VALID,0,VALID,25.67,VALID,217,VALID,1.78594,
2009-06-12, 00:15:04,VALID,1004.46,VALID,0,VALID,89.1053,VALID,0.100563,VALID,25.6876,VALID,176,VALID,0.792188,
2009-06-12, 00:16:04,VALID,1004.49,VALID,0,VALID,89.0672,VALID,0.100563,VALID,25.7071,VALID,166,VALID,1.00039,
2009-06-12, 00:17:04,VALID,1004.48,VALID,0,VALID,89.113,VALID,0.100563,VALID,25.7265,VALID,196,VALID,1.64453,
2009-06-12, 00:18:04,VALID,1004.46,VALID,0,VALID,89.3342,VALID,0,VALID,25.7655,VALID,220,VALID,0.622656,
2009-06-12, 00:19:04,VALID,1004.44,VALID,0,VALID,89.1435,VALID,0.100563,VALID,25.8259,VALID,164,VALID,1.10938,
2009-06-12, 00:20:04,VALID,1004.47,VALID,0,VALID,88.968,VALID,0.100563,VALID,25.8434,VALID,250,VALID,1.73672,
2009-06-12, 00:21:04,VALID,1004.46,VALID,0,VALID,88.8765,VALID,0.100563,VALID,25.8629,VALID,225,VALID,0.643359,
2009-06-12, 00:22:04,VALID,1004.48,VALID,0,VALID,88.8078,VALID,0.100563,VALID,25.9018,VALID,163,VALID,0.455859,
2009-06-12, 00:23:04,VALID,1004.43,VALID,0,VALID,88.6476,VALID,0.100563,VALID,25.9018,VALID,236,VALID,1.19844,
2009-06-12, 00:24:04,VALID,1004.46,VALID,0,VALID,88.6552,VALID,0.100563,VALID,25.9213,VALID,175,VALID,0.457422,
2009-06-12, 00:25:04,VALID,1004.41,VALID,0,VALID,88.4569,VALID,0.100563,VALID,25.9408,VALID,206,VALID,0.888672,
2009-06-12, 00:26:04,VALID,1004.42,VALID,0,VALID,88.5026,VALID,0.100563,VALID,25.9388,VALID,204,VALID,0.780469,
2009-06-12, 00:27:04,VALID,1004.41,VALID,0,VALID,88.5026,VALID,0,VALID,25.9817,VALID,192,VALID,1.02266,
2009-06-12, 00:28:04,VALID,1004.4,VALID,0,VALID,88.1899,VALID,0,VALID,25.9622,VALID,194,VALID,1.04023,
2009-06-12, 00:29:04,VALID,1004.39,VALID,0,VALID,88.0754,VALID,0,VALID,25.9817,VALID,175,VALID,1.26875,
2009-06-12, 00:30:04,VALID,1004.44,VALID,0,VALID,87.816,VALID,0,VALID,25.9817,VALID,220,VALID,1.71641,
2009-06-12, 00:31:04,VALID,1004.42,VALID,0,VALID,87.7321,VALID,0,VALID,26.0012,VALID,185,VALID,0.887109,
2009-06-12, 00:32:04,VALID,1004.46,VALID,0,VALID,87.7474,VALID,0,VALID,25.9992,VALID,238,VALID,0.736719,
2009-06-12, 00:33:04,VALID,1004.47,VALID,0,VALID,87.2515,VALID,0,VALID,26.0206,VALID,187,VALID,2.02656,
2009-06-12, 00:34:04,VALID,1004.43,VALID,0,VALID,86.9235,VALID,0,VALID,26.0596,VALID,199,VALID,1.40547,
2009-06-12, 00:35:04,VALID,1004.45,VALID,0,VALID,86.6412,VALID,0,VALID,26.0576,VALID,209,VALID,1.36719,
2009-06-12, 00:36:04,VALID,1004.48,VALID,0,VALID,86.6565,VALID,0,VALID,26.0985,VALID,250,VALID,1.71953,
2009-06-12, 00:37:04,VALID,1004.43,VALID,0,VALID,86.7327,VALID,0,VALID,26.1375,VALID,221,VALID,1.52422,
2009-06-12, 00:38:04,VALID,1004.42,VALID,0,VALID,86.9006,VALID,0,VALID,26.1355,VALID,183,VALID,0.95,
2009-06-12, 00:39:04,VALID,1004.4,VALID,0,VALID,87.2057,VALID,0,VALID,26.1959,VALID,213,VALID,1.48672,
2009-06-12, 00:40:04,VALID,1004.41,VALID,0,VALID,87.3125,VALID,0,VALID,26.1765,VALID,285,VALID,0.450391,
2009-06-12, 00:41:04,VALID,1004.38,VALID,0,VALID,87.4575,VALID,0,VALID,26.1765,VALID,199,VALID,1.33438,
2009-06-12, 00:42:04,VALID,1004.37,VALID,0,VALID,87.8084,VALID,0,VALID,26.2154,VALID,311,VALID,0.715625,
2009-06-12, 00:43:04,VALID,1004.37,VALID,0,VALID,87.8237,VALID,0,VALID,26.1959,VALID,100,VALID,0.469141,
2009-06-12, 00:44:04,VALID,1004.35,VALID,0,VALID,87.9457,VALID,0,VALID,26.2154,VALID,60,VALID,0.544141,
2009-06-12, 00:45:04,VALID,1004.36,VALID,0,VALID,87.7169,VALID,0,VALID,26.1765,VALID,56,VALID,0.51875,
2009-06-12, 00:46:04,VALID,1004.27,VALID,0,VALID,87.6101,VALID,0,VALID,26.157,VALID,227,VALID,0.746875,
2009-06-12, 00:47:04,VALID,1004.29,VALID,0,VALID,87.4117,VALID,0,VALID,26.1375,VALID,238,VALID,1.14453,
2009-06-12, 00:48:04,VALID,1004.29,VALID,0,VALID,87.5033,VALID,0,VALID,26.1375,VALID,206,VALID,1.40937,
2009-06-12, 00:49:04,VALID,1004.26,VALID,0,VALID,87.9915,VALID,0,VALID,26.1375,VALID,249,VALID,1.55781,
2009-06-12, 00:50:04,VALID,1004.27,VALID,0,VALID,88.1746,VALID,0.100563,VALID,26.118,VALID,241,VALID,0.663281,
2009-06-12, 00:51:04,VALID,1004.25,VALID,0,VALID,88.4416,VALID,0,VALID,26.0985,VALID,187,VALID,0.548047,
2009-06-12, 00:52:04,VALID,1004.27,VALID,0,VALID,88.495,VALID,0,VALID,26.0791,VALID,195,VALID,0.657422,
2009-06-12, 00:53:04,VALID,1004.25,VALID,0,VALID,88.1517,VALID,0,VALID,26.0206,VALID,228,VALID,1.66211,
2009-06-12, 00:54:04,VALID,1004.27,VALID,0,VALID,88.2661,VALID,0,VALID,25.9992,VALID,193,VALID,1.00937,
2009-06-12, 00:55:04,VALID,1004.25,VALID,0,VALID,88.3424,VALID,0,VALID,26.0206,VALID,199,VALID,1.25547,
2009-06-12, 00:56:04,VALID,1004.27,VALID,0,VALID,88.2585,VALID,0,VALID,26.0206,VALID,220,VALID,1.25547,
2009-06-12, 00:57:04,VALID,1004.28,VALID,0,VALID,88.5484,VALID,0,VALID,26.0012,VALID,154,VALID,0.440234,
2009-06-12, 00:58:04,VALID,1004.27,VALID,0,VALID,88.6705,VALID,0,VALID,26.0206,VALID,277,VALID,1.00156,
2009-06-12, 00:59:04,VALID,1004.27,VALID,0,VALID,88.7315,VALID,0,VALID,26.0206,VALID,232,VALID,0.333203,
2009-06-12, 01:00:04,VALID,1004.26,VALID,0,VALID,88.8002,VALID,0,VALID,26.0012,VALID,232,VALID,0.207422,
2009-06-12, 01:01:04,VALID,1004.25,VALID,0,VALID,89.0595,VALID,0,VALID,26.0012,VALID,303,VALID,0.449219,
2009-06-12, 01:02:04,VALID,1004.22,VALID,0,VALID,88.3958,VALID,0,VALID,25.9622,VALID,202,VALID,2.1543,
2009-06-12, 01:03:04,VALID,1004.22,VALID,0,VALID,88.495,VALID,0,VALID,25.9622,VALID,241,VALID,0.533203,
2009-06-12, 01:04:04,VALID,1004.2,VALID,0,VALID,88.2127,VALID,0,VALID,25.9817,VALID,218,VALID,1.09609,
2009-06-12, 01:05:04,VALID,1004.21,VALID,0,VALID,88.3806,VALID,0,VALID,25.9797,VALID,221,VALID,0.595312,
2009-06-12, 01:06:04,VALID,1004.18,VALID,0,VALID,87.8847,VALID,0,VALID,25.9817,VALID,200,VALID,0.944922,
2009-06-12, 01:07:04,VALID,1004.18,VALID,0,VALID,87.8084,VALID,0,VALID,26.0012,VALID,259,VALID,0.669141,
2009-06-12, 01:08:04,VALID,1004.23,VALID,0,VALID,87.1294,VALID,0,VALID,25.9992,VALID,189,VALID,0.900781,
2009-06-12, 01:09:04,VALID,1004.17,VALID,0,VALID,86.6565,VALID,0,VALID,26.0012,VALID,150,VALID,0.671094,
2009-06-12, 01:10:04,VALID,1004.19,VALID,0,VALID,86.4886,VALID,0,VALID,25.9797,VALID,233,VALID,0.526172,
2009-06-12, 01:11:04,VALID,1004.19,VALID,0,VALID,86.2369,VALID,0,VALID,26.0012,VALID,112,VALID,0.533984,
2009-06-12, 01:12:04,VALID,1004.2,VALID,0,VALID,86.1987,VALID,0,VALID,26.0401,VALID,310,VALID,0.885156,
2009-06-12, 01:13:04,VALID,1004.19,VALID,0,VALID,85.5808,VALID,0,VALID,26.0381,VALID,185,VALID,2.05352,
2009-06-12, 01:14:04,VALID,1004.2,VALID,0,VALID,85.329,VALID,0,VALID,26.0576,VALID,278,VALID,0.653516,
2009-06-12, 01:15:04,VALID,1004.19,VALID,0,VALID,85.5655,VALID,0,VALID,26.0966,VALID,34,VALID,0.488672,
2009-06-12, 01:16:04,VALID,1004.2,VALID,0,VALID,85.5198,VALID,0,VALID,26.0966,VALID,256,VALID,0.476172,
2009-06-12, 01:17:04,VALID,1004.21,VALID,0,VALID,85.6647,VALID,0,VALID,26.1355,VALID,215,VALID,0.566016,
2009-06-12, 01:18:04,VALID,1004.18,VALID,0,VALID,85.7334,VALID,0,VALID,26.1355,VALID,245,VALID,0.455859,
2009-06-12, 01:19:04,VALID,1004.18,VALID,0,VALID,86.3284,VALID,0,VALID,26.157,VALID,183,VALID,1.28125,
2009-06-12, 01:20:04,VALID,1004.23,VALID,0,VALID,86.4734,VALID,0.100563,VALID,26.2154,VALID,172,VALID,1.54844,
2009-06-12, 01:21:04,VALID,1004.2,VALID,0,VALID,86.6107,VALID,0,VALID,26.2134,VALID,250,VALID,0.717188,
2009-06-12, 01:22:04,VALID,1004.19,VALID,0,VALID,86.2292,VALID,0,VALID,26.2154,VALID,168,VALID,1.59023,
2009-06-12, 01:23:04,VALID,1004.18,VALID,0,VALID,86.2521,VALID,0,VALID,26.1355,VALID,201,VALID,1.53594,
2009-06-12, 01:24:04,VALID,1004.19,VALID,0,VALID,86.4886,VALID,0,VALID,26.1375,VALID,198,VALID,1.95664,
2009-06-12, 01:25:04,VALID,1004.18,VALID,0,VALID,86.954,VALID,0,VALID,26.0771,VALID,208,VALID,1.125,
2009-06-12, 01:26:04,VALID,1004.14,VALID,0,VALID,87.221,VALID,0,VALID,26.0576,VALID,269,VALID,1.71602,
2009-06-12, 01:27:04,VALID,1004.17,VALID,0,VALID,87.4041,VALID,0,VALID,26.0576,VALID,243,VALID,1.96328,
2009-06-12, 01:28:04,VALID,1004.17,VALID,0,VALID,87.1294,VALID,0,VALID,26.0966,VALID,215,VALID,2.14336,
2009-06-12, 01:29:04,VALID,1004.14,VALID,0,VALID,86.5496,VALID,0,VALID,26.116,VALID,221,VALID,1.43633,
2009-06-12, 01:30:04,VALID,1004.1,VALID,0,VALID,86.6641,VALID,0,VALID,26.1959,VALID,246,VALID,0.969141,
2009-06-12, 01:31:04,VALID,1004.08,VALID,0,VALID,86.8243,VALID,0,VALID,26.1959,VALID,32,VALID,0.615234,
2009-06-12, 01:32:04,VALID,1004.02,VALID,0,VALID,87.076,VALID,0,VALID,26.2154,VALID,230,VALID,1.89453,
2009-06-12, 01:33:04,VALID,1004,VALID,0,VALID,87.2134,VALID,0,VALID,26.1959,VALID,231,VALID,1.47656,
2009-06-12, 01:34:04,VALID,1003.99,VALID,0,VALID,87.2973,VALID,0.100563,VALID,26.1959,VALID,343,VALID,1.21055,
2009-06-12, 01:35:04,VALID,1003.99,VALID,0,VALID,86.8548,VALID,0,VALID,26.2154,VALID,251,VALID,1.54062,
2009-06-12, 01:36:04,VALID,1004.01,VALID,0,VALID,86.5191,VALID,0.100563,VALID,26.1959,VALID,37,VALID,0.804688,
2009-06-12, 01:37:04,VALID,1003.96,VALID,0,VALID,86.4962,VALID,0,VALID,26.194,VALID,208,VALID,0.911719,
2009-06-12, 01:38:04,VALID,1003.97,VALID,0,VALID,86.6793,VALID,0,VALID,26.2154,VALID,189,VALID,1.36758,
2009-06-12, 01:39:04,VALID,1003.99,VALID,0,VALID,86.6717,VALID,0,VALID,26.2154,VALID,206,VALID,2.61445,
2009-06-12, 01:40:04,VALID,1004,VALID,0,VALID,86.8167,VALID,0,VALID,26.2349,VALID,313,VALID,1.44727,
2009-06-12, 01:41:04,VALID,1003.99,VALID,0,VALID,87.0532,VALID,0,VALID,26.2349,VALID,248,VALID,1.28828,
2009-06-12, 01:42:04,VALID,1003.95,VALID,0,VALID,87.0913,VALID,0,VALID,26.2134,VALID,229,VALID,2.24414,
2009-06-12, 01:43:04,VALID,1003.96,VALID,0,VALID,87.343,VALID,0,VALID,26.2544,VALID,127,VALID,1.06523,
2009-06-12, 01:44:04,VALID,1003.97,VALID,0,VALID,87.7169,VALID,0,VALID,26.2544,VALID,74,VALID,0.878906,
2009-06-12, 01:45:04,VALID,1003.96,VALID,0,VALID,87.9305,VALID,0,VALID,26.2953,VALID,212,VALID,3.43594,
2009-06-12, 01:46:04,VALID,1004.05,VALID,0,VALID,88.0754,VALID,0,VALID,26.3128,VALID,187,VALID,1.77109,
2009-06-12, 01:47:04,VALID,1004,VALID,0,VALID,88.2051,VALID,0,VALID,26.3323,VALID,280,VALID,1.24609,
2009-06-12, 01:48:04,VALID,1003.98,VALID,0,VALID,87.9915,VALID,0,VALID,26.3323,VALID,230,VALID,1.40156,
2009-06-12, 01:49:04,VALID,1003.99,VALID,0,VALID,87.9228,VALID,0,VALID,26.3303,VALID,212,VALID,1.31602,
2009-06-12, 01:50:04,VALID,1003.98,VALID,0,VALID,87.9534,VALID,0,VALID,26.3323,VALID,214,VALID,1.32266,
2009-06-12, 01:51:04,VALID,1003.94,VALID,0,VALID,87.8237,VALID,0,VALID,26.3518,VALID,170,VALID,1.75508,
2009-06-12, 01:52:04,VALID,1003.95,VALID,0,VALID,87.3202,VALID,0,VALID,26.4102,VALID,196,VALID,2.17031,
2009-06-12, 01:53:04,VALID,1004,VALID,0,VALID,87.3278,VALID,0,VALID,26.4687,VALID,255,VALID,1.14727,
2009-06-12, 01:54:04,VALID,1004.03,VALID,0,VALID,86.6946,VALID,0,VALID,26.4881,VALID,193,VALID,1.73672,
2009-06-12, 01:55:04,VALID,1004.02,VALID,0,VALID,85.6571,VALID,0,VALID,26.5076,VALID,197,VALID,1.96797,
2009-06-12, 01:56:04,VALID,1004.04,VALID,0,VALID,85.2604,VALID,0,VALID,26.5641,VALID,89,VALID,0.532031,
2009-06-12, 01:57:04,VALID,1004.09,VALID,0,VALID,84.6729,VALID,0,VALID,26.605,VALID,6,VALID,1.13594,
2009-06-12, 01:58:04,VALID,1004.1,VALID,0,VALID,83.0098,VALID,0,VALID,26.6635,VALID,197,VALID,1.24258,
2009-06-12, 01:59:04,VALID,1004.1,VALID,0,VALID,81.8197,VALID,0,VALID,26.7024,VALID,262,VALID,2.11484,
2009-06-12, 02:00:04,VALID,1004.1,VALID,0,VALID,80.3779,VALID,0,VALID,26.7589,VALID,190,VALID,2.61758,
2009-06-12, 02:01:04,VALID,1004.14,VALID,0,VALID,80.9195,VALID,0,VALID,26.8388,VALID,205,VALID,1.80977,
2009-06-12, 02:02:04,VALID,1004.15,VALID,0,VALID,80.4389,VALID,0,VALID,26.8583,VALID,190,VALID,0.948828,
2009-06-12, 02:03:04,VALID,1004.14,VALID,0,VALID,80.416,VALID,0,VALID,26.8778,VALID,258,VALID,1.75742,
2009-06-12, 02:04:04,VALID,1004.05,VALID,0,VALID,79.5769,VALID,0.100563,VALID,26.8778,VALID,203,VALID,1.24297,
2009-06-12, 02:05:04,VALID,1004.14,VALID,0,VALID,79.5235,VALID,0,VALID,26.8583,VALID,212,VALID,2.00781,
2009-06-12, 02:06:04,VALID,1004.16,VALID,0,VALID,79.8896,VALID,0,VALID,26.8973,VALID,194,VALID,0.9,
2009-06-12, 02:07:04,VALID,1004.13,VALID,0,VALID,78.547,VALID,0,VALID,26.8778,VALID,191,VALID,1.86484,
2009-06-12, 02:08:04,VALID,1004.14,VALID,0,VALID,78.3791,VALID,0,VALID,26.8973,VALID,270,VALID,1.25547,
2009-06-12, 02:09:04,VALID,1004.09,VALID,0,VALID,78.5775,VALID,0,VALID,26.8973,VALID,193,VALID,1.12891,
2009-06-12, 02:10:04,VALID,1004.15,VALID,0,VALID,78.6232,VALID,0,VALID,26.8757,VALID,165,VALID,1.24961,
2009-06-12, 02:11:04,VALID,1004.14,VALID,0,VALID,78.6919,VALID,0,VALID,26.9167,VALID,269,VALID,1.90859,
2009-06-12, 02:12:04,VALID,1004.08,VALID,0,VALID,78.5088,VALID,0,VALID,26.9557,VALID,248,VALID,1.58477,
2009-06-12, 02:13:04,VALID,1004.05,VALID,0,VALID,78.0053,VALID,0,VALID,26.9752,VALID,239,VALID,1.77578,
2009-06-12, 02:14:04,VALID,1004.08,VALID,0,VALID,77.5628,VALID,0,VALID,26.9752,VALID,228,VALID,1.56367,
2009-06-12, 02:15:04,VALID,1004.08,VALID,0,VALID,77.5476,VALID,0,VALID,27.0162,VALID,276,VALID,0.988672,
2009-06-12, 02:16:04,VALID,1004.1,VALID,0,VALID,78.402,VALID,0,VALID,26.9752,VALID,238,VALID,1.29102,
2009-06-12, 02:17:04,VALID,1004,VALID,0,VALID,78.5088,VALID,0,VALID,26.9362,VALID,236,VALID,1.11953,
2009-06-12, 02:18:04,VALID,1004.03,VALID,0,VALID,78.4936,VALID,0,VALID,26.9167,VALID,258,VALID,1.52344,
2009-06-12, 02:19:04,VALID,1004.05,VALID,0,VALID,79.0047,VALID,0,VALID,26.9383,VALID,205,VALID,0.605859,
2009-06-12, 02:20:04,VALID,1004.08,VALID,0,VALID,79.203,VALID,0,VALID,26.9167,VALID,257,VALID,2.08008,
2009-06-12, 02:21:04,VALID,1004.1,VALID,0,VALID,78.73,VALID,0,VALID,26.9167,VALID,244,VALID,2.51563,
2009-06-12, 02:22:04,VALID,1004.13,VALID,0,VALID,77.662,VALID,0,VALID,26.8778,VALID,257,VALID,1.19219,
2009-06-12, 02:23:04,VALID,1004.1,VALID,0,VALID,76.983,VALID,0,VALID,26.8778,VALID,278,VALID,1.11875,
2009-06-12, 02:24:04,VALID,1004.11,VALID,0,VALID,76.2125,VALID,0,VALID,26.8583,VALID,259,VALID,1.94102,
2009-06-12, 02:25:04,VALID,1004.09,VALID,0,VALID,76.8228,VALID,0,VALID,26.8778,VALID,270,VALID,1.175,
2009-06-12, 02:26:04,VALID,1004.15,VALID,0,VALID,77.0669,VALID,0,VALID,26.8563,VALID,274,VALID,1.33203,
2009-06-12, 02:27:04,VALID,1004.11,VALID,0,VALID,77.2424,VALID,0,VALID,26.8778,VALID,297,VALID,0.541016,
2009-06-12, 02:28:04,VALID,1004.13,VALID,0,VALID,77.6239,VALID,0,VALID,26.8973,VALID,255,VALID,1.48711,
2009-06-12, 02:29:04,VALID,1004.07,VALID,0,VALID,76.716,VALID,0,VALID,26.9167,VALID,269,VALID,2.23516,
2009-06-12, 02:30:04,VALID,1004.12,VALID,0,VALID,77.2195,VALID,0,VALID,26.9342,VALID,257,VALID,1.35859,
2009-06-12, 02:31:04,VALID,1004.05,VALID,0,VALID,76.3575,VALID,0,VALID,26.9362,VALID,250,VALID,1.67891,
2009-06-12, 02:32:04,VALID,1004.09,VALID,0,VALID,76.3956,VALID,0,VALID,27.0162,VALID,286,VALID,2.75781,
2009-06-12, 02:33:04,VALID,1004.09,VALID,0,VALID,76.4643,VALID,0,VALID,27.0531,VALID,321,VALID,1.07187,
2009-06-12, 02:34:04,VALID,1004.08,VALID,0,VALID,76.5406,VALID,0,VALID,27.1136,VALID,269,VALID,1.47461,
2009-06-12, 02:35:04,VALID,1004.11,VALID,0,VALID,77.0059,VALID,0,VALID,27.1116,VALID,318,VALID,1.675,
2009-06-12, 02:36:04,VALID,1004.13,VALID,0,VALID,76.8686,VALID,0,VALID,27.1116,VALID,241,VALID,0.8,
2009-06-12, 02:37:04,VALID,1004.09,VALID,0,VALID,75.6175,VALID,0,VALID,27.1721,VALID,275,VALID,3.13281,
2009-06-12, 02:38:04,VALID,1004.13,VALID,0,VALID,75.6937,VALID,0,VALID,27.209,VALID,276,VALID,1.28125,
2009-06-12, 02:39:04,VALID,1004.1,VALID,0,VALID,74.9843,VALID,0,VALID,27.2695,VALID,235,VALID,2.11133,
2009-06-12, 02:40:04,VALID,1004.14,VALID,0,VALID,75.6937,VALID,0,VALID,27.2675,VALID,255,VALID,1.36484,
2009-06-12, 02:41:04,VALID,1004.11,VALID,0,VALID,75.77,VALID,0,VALID,27.2675,VALID,95,VALID,1.2332,
2009-06-12, 02:42:04,VALID,1004.13,VALID,0,VALID,76.1973,VALID,0,VALID,27.2675,VALID,182,VALID,0.628516,
2009-06-12, 02:43:04,VALID,1004.12,VALID,0,VALID,75.8921,VALID,0,VALID,27.2285,VALID,281,VALID,1.85078,
2009-06-12, 02:44:04,VALID,1004.1,VALID,0,VALID,76.5024,VALID,0,VALID,27.209,VALID,318,VALID,1.1707,
2009-06-12, 02:45:04,VALID,1004.06,VALID,0,VALID,75.9913,VALID,0,VALID,27.1895,VALID,272,VALID,1.43125,
2009-06-12, 02:46:04,VALID,1004.09,VALID,0,VALID,76.861,VALID,0,VALID,27.17,VALID,279,VALID,0.784375,
2009-06-12, 02:47:04,VALID,1004.08,VALID,0,VALID,77.1204,VALID,0,VALID,27.1506,VALID,206,VALID,1.27539,
2009-06-12, 02:48:04,VALID,1004.14,VALID,0,VALID,77.5171,VALID,0,VALID,27.1506,VALID,295,VALID,1.01875,
2009-06-12, 02:49:04,VALID,1004.02,VALID,0,VALID,77.1356,VALID,0,VALID,27.1721,VALID,218,VALID,1.65977,
2009-06-12, 02:50:04,VALID,1004.03,VALID,0,VALID,77.5399,VALID,0,VALID,27.17,VALID,252,VALID,0.885156,
2009-06-12, 02:51:04,VALID,1003.99,VALID,0,VALID,77.4331,VALID,0,VALID,27.17,VALID,262,VALID,1.03437,
2009-06-12, 02:52:04,VALID,1004.01,VALID,0,VALID,77.3721,VALID,0,VALID,27.17,VALID,249,VALID,1.55859,
2009-06-12, 02:53:04,VALID,1003.97,VALID,0,VALID,77.3187,VALID,0,VALID,27.17,VALID,279,VALID,1.32695,
2009-06-12, 02:54:04,VALID,1003.96,VALID,0,VALID,76.8457,VALID,0,VALID,27.1895,VALID,266,VALID,1.35547,
2009-06-12, 02:55:04,VALID,1004.01,VALID,0,VALID,76.2735,VALID,0,VALID,27.248,VALID,304,VALID,1.22695,
2009-06-12, 02:56:04,VALID,1003.94,VALID,0,VALID,75.9913,VALID,0,VALID,27.2675,VALID,218,VALID,0.859766,
2009-06-12, 02:57:04,VALID,1003.92,VALID,0,VALID,75.3199,VALID,0,VALID,27.3064,VALID,277,VALID,1.71797,
2009-06-12, 02:58:04,VALID,1003.9,VALID,0,VALID,75.1674,VALID,0,VALID,27.3475,VALID,259,VALID,1.65742,
2009-06-12, 02:59:04,VALID,1003.87,VALID,0,VALID,75.5869,VALID,0,VALID,27.3649,VALID,244,VALID,2.11797,
2009-06-12, 03:00:04,VALID,1003.88,VALID,0,VALID,76.0447,VALID,0,VALID,27.3649,VALID,246,VALID,0.625781,
2009-06-12, 03:01:04,VALID,1003.88,VALID,0,VALID,75.7853,VALID,0,VALID,27.3259,VALID,261,VALID,1.55781,
2009-06-12, 03:02:04,VALID,1003.8,VALID,0,VALID,75.7472,VALID,0,VALID,27.3649,VALID,304,VALID,2.12109,
2009-06-12, 03:03:04,VALID,1003.84,VALID,0,VALID,76.327,VALID,0,VALID,27.367,VALID,271,VALID,0.825391,
2009-06-12, 03:04:04,VALID,1003.81,VALID,0,VALID,76.4338,VALID,0,VALID,27.3454,VALID,288,VALID,0.807813,
2009-06-12, 03:05:04,VALID,1003.81,VALID,0,VALID,76.0828,VALID,0,VALID,27.3064,VALID,260,VALID,1.76172,
2009-06-12, 03:06:04,VALID,1003.83,VALID,0,VALID,76.6779,VALID,0,VALID,27.3085,VALID,256,VALID,1.1125,
2009-06-12, 03:07:04,VALID,1003.81,VALID,0,VALID,76.7999,VALID,0,VALID,27.2675,VALID,312,VALID,0.684766,
2009-06-12, 03:08:04,VALID,1003.74,VALID,0,VALID,75.2665,VALID,0,VALID,27.248,VALID,271,VALID,2.06875,
2009-06-12, 03:09:04,VALID,1003.75,VALID,0,VALID,75.6556,VALID,0,VALID,27.2675,VALID,355,VALID,1.0375,
2009-06-12, 03:10:04,VALID,1003.66,VALID,0,VALID,74.8393,VALID,0,VALID,27.2675,VALID,210,VALID,1.64883,
2009-06-12, 03:11:04,VALID,1003.73,VALID,0,VALID,75.3504,VALID,0,VALID,27.3259,VALID,193,VALID,1.56211,
2009-06-12, 03:12:04,VALID,1003.77,VALID,0,VALID,75.3047,VALID,0.100563,VALID,27.3433,VALID,259,VALID,2.68008,
2009-06-12, 03:13:04,VALID,1003.79,VALID,0,VALID,74.908,VALID,0.100563,VALID,27.3433,VALID,240,VALID,1.65391,
2009-06-12, 03:14:04,VALID,1003.82,VALID,0,VALID,75.4115,VALID,0.100563,VALID,27.3238,VALID,246,VALID,0.771094,
2009-06-12, 03:15:04,VALID,1003.85,VALID,0,VALID,75.9302,VALID,0.100563,VALID,27.3238,VALID,300,VALID,0.442969,
2009-06-12, 03:16:04,VALID,1003.79,VALID,0,VALID,75.6861,VALID,0.100563,VALID,27.2654,VALID,278,VALID,1.5793,
2009-06-12, 03:17:04,VALID,1003.84,VALID,0,VALID,75.6251,VALID,0.100563,VALID,27.2264,VALID,253,VALID,2.02109,
2009-06-12, 03:18:04,VALID,1003.88,VALID,0,VALID,76.5634,VALID,0.100563,VALID,27.2069,VALID,298,VALID,1.71836,
2009-06-12, 03:19:04,VALID,1003.88,VALID,0,VALID,76.5711,VALID,0.100563,VALID,27.2069,VALID,251,VALID,1.62969,
2009-06-12, 03:20:04,VALID,1003.88,VALID,0,VALID,76.7313,VALID,0.100563,VALID,27.2069,VALID,276,VALID,1.32422,
2009-06-12, 03:21:04,VALID,1003.86,VALID,0,VALID,77.3111,VALID,0.100563,VALID,27.168,VALID,255,VALID,1.51523,
2009-06-12, 03:22:04,VALID,1003.91,VALID,0,VALID,77.7383,VALID,0.100563,VALID,27.168,VALID,261,VALID,3.04648,
2009-06-12, 03:23:04,VALID,1003.93,VALID,0,VALID,77.7078,VALID,0.100563,VALID,27.1485,VALID,285,VALID,2.14414,
2009-06-12, 03:24:04,VALID,1003.88,VALID,0,VALID,76.9525,VALID,0.100563,VALID,27.1485,VALID,287,VALID,4.10977,
2009-06-12, 03:25:04,VALID,1003.92,VALID,0,VALID,77.3645,VALID,0.100563,VALID,27.1875,VALID,355,VALID,1.29336,
2009-06-12, 03:26:04,VALID,1003.95,VALID,0,VALID,77.3721,VALID,0.100563,VALID,27.1875,VALID,294,VALID,1.80078,
2009-06-12, 03:27:04,VALID,1003.97,VALID,0,VALID,77.7535,VALID,0,VALID,27.1895,VALID,296,VALID,1.39375,
2009-06-12, 03:28:04,VALID,1003.92,VALID,0,VALID,78.3715,VALID,0,VALID,27.129,VALID,245,VALID,1.8332,
2009-06-12, 03:29:04,VALID,1003.96,VALID,0,VALID,77.7993,VALID,0.100563,VALID,27.1095,VALID,283,VALID,1.85195,
2009-06-12, 03:30:04,VALID,1003.98,VALID,0,VALID,78.2342,VALID,0.100563,VALID,27.1485,VALID,271,VALID,1.37109,
2009-06-12, 03:31:04,VALID,1003.93,VALID,0,VALID,78.3257,VALID,0,VALID,27.129,VALID,283,VALID,1.29805,
2009-06-12, 03:32:04,VALID,1003.91,VALID,0,VALID,77.929,VALID,0.100563,VALID,27.129,VALID,308,VALID,3.98711,
2009-06-12, 03:33:04,VALID,1003.91,VALID,0,VALID,78.4325,VALID,0.100563,VALID,27.129,VALID,286,VALID,1.61992,
2009-06-12, 03:34:04,VALID,1003.94,VALID,0,VALID,78.875,VALID,0.100563,VALID,27.1095,VALID,258,VALID,1.26367,
2009-06-12, 03:35:04,VALID,1003.9,VALID,0,VALID,78.9208,VALID,0,VALID,27.09,VALID,314,VALID,1.54414,
2009-06-12, 03:36:04,VALID,1003.89,VALID,0,VALID,79.3556,VALID,0.100563,VALID,27.0511,VALID,307,VALID,2.25391,
2009-06-12, 03:37:04,VALID,1003.9,VALID,0,VALID,79.8133,VALID,0.100563,VALID,27.0511,VALID,247,VALID,0.805078,
2009-06-12, 03:38:04,VALID,1003.88,VALID,0.5,VALID,79.9354,VALID,0.100563,VALID,27.0316,VALID,256,VALID,1.00195,
2009-06-12, 03:39:04,VALID,1003.92,VALID,0,VALID,79.9812,VALID,0.100563,VALID,26.9926,VALID,291,VALID,1.55391,
2009-06-12, 03:40:04,VALID,1003.9,VALID,0,VALID,79.9354,VALID,0.100563,VALID,26.9732,VALID,274,VALID,2.38867,
2009-06-12, 03:41:04,VALID,1003.96,VALID,0,VALID,80.6449,VALID,0.100563,VALID,26.9732,VALID,281,VALID,1.21953,
2009-06-12, 03:42:04,VALID,1003.9,VALID,0,VALID,80.6602,VALID,0,VALID,26.9557,VALID,284,VALID,1.36641,
2009-06-12, 03:43:04,VALID,1003.95,VALID,0,VALID,80.7288,VALID,0,VALID,26.9557,VALID,274,VALID,1.24961,